Home   Weather   Stockport   Past weeks
Flag for United Kingdom

Past Weather in Stockport, England, United Kingdom — Yesterday and Last 2 Weeks

Now
43 °F

Mostly cloudy.


Feels Like: 37 °F
Forecast: 44 / 37 °F
Wind: 9 mph from Southwest

Location: Manchester Airport

Current Time: Dec 9, 2019 at 12:34:14 am

Latest Report: Dec 8, 2019 at 11:50 pm


Visibility: N/A

Pressure: 29.15 "Hg

Humidity: 87%

Dew Point: 39 °F

Location of StockportLocation

Past Weather in Stockport — Graph

°F

Stockport Temperature Yesterday

Maximum temperature yesterday: 52 °F (at 1:50 am)
Minimum temperature yesterday: 43 °F (at 8:20 am)
Average temperature yesterday: 46 °F

High & Low Weather Summary for the Past Weeks

 TemperatureHumidityPressure
High55 °F (Nov 26, 2:50 pm)100% (Nov 24, 12:20 am)30.48 "Hg (Nov 24, 12:20 am)
Low23 °F (Dec 2, 3:20 am)62% (Dec 8, 1:20 pm)29.03 "Hg (Nov 27, 5:20 am)
Average43 °F89%29.78 "Hg
* Reported Nov 23 11:20 pm — Dec 8 11:20 pm, Stockport. Weather by CustomWeather, © 2019

Note: Actual official high and low records may vary slightly from our data, if they occured in-between our weather recording intervals... More about our weather records

Stockport Weather History for the Previous 24 Hours

Scroll right to see more
 ConditionsComfort  
Time TempWeatherWind HumidityBarometerVisibility
11:20 pm
Sun, Dec 8
43 °FLight rain. Mostly cloudy.10 mph87%29.12 "HgN/A
10:50 pm43 °FLight rain. Mostly cloudy.10 mph87%29.15 "HgN/A
10:20 pm43 °FLight rain. Passing clouds.10 mph81%29.15 "HgN/A
9:50 pm43 °FPartly cloudy.10 mph81%29.15 "HgN/A
9:20 pm43 °FPassing clouds.9 mph87%29.15 "HgN/A
8:50 pm43 °FPassing clouds.10 mph81%29.15 "HgN/A
8:20 pm43 °FPassing clouds.9 mph81%29.18 "HgN/A
7:50 pm43 °FPassing clouds.8 mph76%29.18 "HgN/A
7:20 pm43 °FPartly cloudy.10 mph76%29.21 "HgN/A
6:50 pm43 °FPassing clouds.14 mph76%29.21 "HgN/A
6:20 pm43 °FQuite cool.15 mph76%29.21 "HgN/A
5:50 pm45 °FPassing clouds.15 mph71%29.24 "HgN/A
5:20 pm45 °FQuite cool.15 mph66%29.24 "HgN/A
4:50 pm45 °FQuite cool.16 mph71%29.27 "HgN/A
4:20 pm43 °FQuite cool.18 mph76%29.27 "HgN/A
3:50 pm45 °FQuite cool.18 mph71%29.27 "HgN/A
3:20 pm45 °FScattered clouds.18 mph71%29.30 "HgN/A
2:50 pm46 °FLight rain. Broken clouds.22 mph66%29.30 "HgN/A
2:20 pm46 °FPartly sunny.20 mph66%29.30 "HgN/A
1:50 pm46 °FScattered clouds.18 mph66%29.30 "HgN/A
1:20 pm48 °FPassing clouds.24 mph62%29.33 "HgN/A
12:50 pm46 °FScattered clouds.24 mph71%29.33 "HgN/A
12:20 pm46 °FScattered clouds.28 mph71%29.33 "HgN/A
11:50 am46 °FScattered clouds.24 mph71%29.33 "HgN/A
11:20 am46 °FScattered showers. Passing clouds.26 mph71%29.33 "HgN/A
10:50 am46 °FCool.22 mph71%29.36 "HgN/A
10:20 am46 °FCool.20 mph71%29.36 "HgN/A
9:50 am46 °FCool.18 mph71%29.36 "HgN/A
9:20 am46 °FPassing clouds.20 mph71%29.36 "HgN/A
8:50 am43 °FScattered clouds.9 mph81%29.36 "HgN/A
8:20 am43 °FQuite cool.7 mph81%29.36 "HgN/A
7:50 am45 °FPassing clouds.17 mph76%29.36 "HgN/A
7:20 am46 °FCool.18 mph76%29.36 "HgN/A
6:50 am46 °FPassing clouds.17 mph76%29.39 "HgN/A
6:20 am46 °FPassing clouds.17 mph76%29.36 "HgN/A
5:50 am46 °FCool.20 mph76%29.36 "HgN/A
5:20 am48 °FPassing clouds.21 mph71%29.36 "HgN/A
3:50 am52 °FPassing clouds.21 mph72%29.33 "HgN/A
3:20 am52 °FLight rain. Partly cloudy.18 mph88%29.33 "HgN/A
2:50 am52 °FLight rain. Mostly cloudy.16 mph94%29.30 "Hg6 mi
2:20 am52 °FLight rain. Mostly cloudy.14 mph88%29.30 "Hg4 mi
1:50 am52 °FOvercast.16 mph88%29.33 "HgN/A
1:20 am50 °FOvercast.15 mph94%29.33 "HgN/A
12:50 am50 °FOvercast.15 mph88%29.36 "HgN/A
12:20 am48 °FRain. Mostly cloudy.14 mph94%29.39 "Hg2 mi
Weather by CustomWeather, © 2019

See weather overview

Advertising